QPF
0.00 0.00 0.00 0.00 0.00 0.00 0.00 0.00 0.00 0.00 0.00 0.00 0.00 0.00 0.00 0.00 0.00 0.04 0.01 0.00 0.00 0.00 0.00 0.00 0.00 0.00 0.00 0.00 0.00 0.00 0.00 0.00 0.00 0.00 0.00 0.00 0.00 0.00 0.00 0.00 0.00 0.00 0.00 0.00 0.00 0.00 0.00 0.00 0.00
0.00 0.00 0.00 0.00 0.00 0.00 0.00 0.00 0.00 0.00 0.00 0.00 0.00 0.00 0.00 0.00 0.00 0.00 0.00 0.00 0.00 0.00 0.00 0.00 0.00 0.00 0.00 0.00 0.00 0.00 0.00 0.00 0.00 0.00 0.00 0.00 0.00 0.00 0.00 0.00 0.00 0.00 0.00 0.00 0.00 0.00 0.00 0.00 0.00
0.00 0.00 0.00 0.00 0.00 0.00 0.00 0.00 0.00 0.00 0.00 0.00 0.00 0.00 0.00 0.00 0.00 0.00 0.00 0.00 0.00 0.00 0.00 0.00 0.00 0.00 0.00 0.00 0.00 0.00 0.00 0.00 0.00 0.00 0.00 0.00 0.00 0.00 0.00 0.00 0.00 0.00 0.00 0.00 0.00 0.00 0.00 0.00 0.00
0.00 0.00 0.00 0.00 0.00 0.00 0.00 0.00 0.00 0.00 0.00 0.00 0.00 0.00 0.00 0.00 0.00 0.00 0.00 0.00 0.00 0.00 0.00 0.00 0.00 0.00 0.00 0.00 0.00 0.00 0.00 0.00 0.00 0.00 0.00 0.00 0.00 0.00 0.00 0.00 0.00 0.00 0.00 0.00 0.00 0.00 0.00 0.00 0.00
0.00 0.00 0.00 0.00 0.00 0.00 0.00 0.00 0.00 0.00 0.00 0.00 0.00 0.00 0.00 0.00 0.00 0.00 0.00 0.00 0.00 0.00 0.00 0.00 0.00 0.00 0.00 0.00 0.00 0.00 0.00 0.00 0.00 0.00 0.00 0.00 0.00 0.00 0.00 0.00 0.00 0.00 0.00 0.00 0.00 0.00 0.00 0.00 0.00
0.00 0.00 0.00 0.00 0.00 0.00 0.00 0.00 0.00 0.00 0.00 0.00 0.00 0.00 0.00 0.00 0.00 0.00 0.00 0.00 0.00 0.00 0.00 0.00 0.00 0.00 0.00 0.00 0.00 0.00 0.00 0.00 0.00 0.00 0.00 0.00 0.00 0.00 0.00 0.00 0.00 0.00 0.00 0.00 0.00 0.00 0.00 0.00 0.00
0.00 0.00 0.00 0.00 0.00 0.00 0.00 0.00 0.00 0.00 0.00 0.00 0.00 0.00 0.00 0.00 0.00 0.00 0.00 0.00 0.00 0.00 0.00 0.00 0.00 0.00 0.00 0.00 0.00 0.00 0.00 0.00 0.00 0.00 0.00 0.00 0.00 0.00 0.00 0.00 0.00 0.00 0.00 0.00 0.00 0.00 0.00 0.00 0.00
0.00 0.00 0.00 0.00 0.00 0.00 0.00 0.00 0.00 0.00 0.00 0.00 0.00 0.00 0.00 0.00 0.00 0.00 0.00 0.00 0.00 0.00 0.00 0.00 0.00 0.00 0.00 0.00 0.00 0.00 0.00 0.00 0.00 0.00 0.00 0.00 0.00 0.00 0.00 0.00 0.00 0.00 0.00 0.00 0.03 0.02 0.00 0.00 0.00
0.00 0.00 0.00 0.00 0.00 0.00 0.00 0.00 0.00 0.00 0.00 0.00 0.00 0.00 0.00 0.00 0.00 0.00 0.00 0.00 0.00 0.00 0.00 0.00 0.00 0.00 0.00 0.00 0.00 0.00 0.00 0.00 0.00 0.00 0.00 0.00 0.00 0.00 0.00 0.00 0.00 0.01 0.00 0.01 0.00 0.02 0.02 0.00 0.00
0.00 0.00 0.00 0.00 0.00 0.00 0.00 0.00 0.00 0.00 0.00 0.00 0.00 0.00 0.00 0.00 0.00 0.00 0.00 0.00 0.00 0.00 0.00 0.00 0.00 0.00 0.00 0.00 0.00 0.01 0.00 0.00 0.00 0.00 0.00 0.00 0.00 0.00 0.00 0.01 0.00 0.02 0.01 0.00 0.01 0.00 0.00 0.01 0.00
0.00 0.00 0.00 0.00 0.00 0.00 0.00 0.00 0.00 0.00 0.00 0.00 0.00 0.00 0.00 0.00 0.00 0.00 0.00 0.00 0.00 0.00 0.00 0.00 0.00 0.00 0.00 0.00 0.00 0.01 0.01 0.01 0.01 0.01 0.00 0.02 0.03 0.03 0.03 0.10 0.09 0.04 0.01 0.01 0.00 0.00 0.00 0.00 0.00
0.00 0.00 0.00 0.00 0.00 0.00 0.00 0.00 0.00 0.00 0.00 0.00 0.00 0.00 0.00 0.00 0.00 0.00 0.00 0.00 0.00 0.00 0.00 0.00 0.00 0.00 0.00 0.00 0.00 0.00 0.01 0.00 0.03 0.15 0.22 0.12 0.05 0.04 0.05 0.06 0.10 0.12 0.22 0.13 0.10 0.03 0.00 0.00 0.00
0.00 0.00 0.00 0.00 0.00 0.00 0.00 0.00 0.00 0.00 0.00 0.00 0.00 0.00 0.00 0.00 0.00 0.00 0.00 0.00 0.00 0.00 0.00 0.00 0.00 0.00 0.00 0.00 0.00 0.00 0.02 0.06 0.11 0.18 0.19 0.10 0.08 0.09 0.08 0.07 0.10 0.21 0.23 0.20 0.18 0.13 0.04 0.01 0.00
0.00 0.00 0.00 0.00 0.00 0.00 0.00 0.00 0.00 0.00 0.00 0.00 0.00 0.00 0.00 0.00 0.00 0.00 0.00 0.00 0.00 0.00 0.00 0.00 0.00 0.00 0.00 0.00 0.00 0.00 0.00 0.02 0.02 0.03 0.05 0.03 0.04 0.05 0.06 0.05 0.05 0.06 0.13 0.27 0.28 0.32 0.30 0.15 0.09
0.00 0.00 0.00 0.00 0.00 0.00 0.00 0.00 0.00 0.00 0.00 0.00 0.00 0.00 0.00 0.00 0.00 0.00 0.00 0.00 0.00 0.00 0.00 0.00 0.00 0.00 0.00 0.00 0.00 0.00 0.00 0.00 0.00 0.01 0.01 0.02 0.02 0.02 0.00 0.00 0.01 0.02 0.03 0.09 0.22 0.43 0.46 0.43 0.37
0.00 0.00 0.00 0.00 0.00 0.00 0.00 0.00 0.00 0.00 0.00 0.00 0.00 0.00 0.00 0.00 0.00 0.00 0.00 0.00 0.00 0.00 0.00 0.00 0.00 0.00 0.00 0.00 0.00 0.00 0.00 0.00 0.00 0.00 0.00 0.00 0.00 0.00 0.00 0.00 0.00 0.00 0.00 0.00 0.02 0.05 0.16 0.24 0.30
0.00 0.00 0.00 0.00 0.00 0.00 0.00 0.00 0.00 0.00 0.00 0.00 0.00 0.00 0.00 0.00 0.00 0.00 0.00 0.00 0.00 0.00 0.00 0.00 0.00 0.00 0.00 0.00 0.00 0.00 0.00 0.00 0.00 0.00 0.00 0.00 0.00 0.00 0.00 0.00 0.00 0.00 0.00 0.00 0.00 0.00 0.01 0.01 0.04
0.00 0.00 0.00 0.00 0.00 0.00 0.00 0.00 0.00 0.00 0.00 0.00 0.00 0.00 0.00 0.00 0.00 0.00 0.00 0.00 0.00 0.00 0.00 0.00 0.00 0.00 0.00 0.00 0.00 0.00 0.00 0.00 0.00 0.00 0.00 0.00 0.00 0.00 0.00 0.00 0.00 0.00 0.00 0.00 0.00 0.00 0.00 0.01 0.00
0.00 0.00 0.00 0.00 0.00 0.00 0.00 0.00 0.00 0.00 0.00 0.00 0.00 0.00 0.00 0.00 0.00 0.00 0.00 0.00 0.00 0.00 0.00 0.00 0.00 0.00 0.00 0.00 0.00 0.00 0.00 0.00 0.00 0.00 0.00 0.00 0.00 0.00 0.00 0.00 0.00 0.00 0.00 0.00 0.00 0.00 0.00 0.00 0.00
0.00 0.00 0.00 0.00 0.00 0.00 0.00 0.00 0.00 0.00 0.00 0.00 0.00 0.00 0.00 0.00 0.00 0.00 0.00 0.00 0.00 0.00 0.00 0.00 0.00 0.00 0.00 0.00 0.00 0.00 0.00 0.00 0.00 0.00 0.00 0.00 0.00 0.00 0.00 0.00 0.00 0.00 0.00 0.00 0.00 0.00 0.00 0.00 0.00
0.00 0.00 0.00 0.00 0.00 0.00 0.00 0.00 0.00 0.00 0.00 0.00 0.00 0.00 0.00 0.00 0.00 0.00 0.00 0.00 0.00 0.00 0.00 0.00 0.00 0.00 0.00 0.00 0.00 0.00 0.00 0.00 0.00 0.00 0.00 0.00 0.00 0.00 0.00 0.00 0.00 0.00 0.00 0.00 0.00 0.00 0.00 0.00 0.00
0.00 0.00 0.00 0.00 0.00 0.00 0.00 0.00 0.00 0.00 0.00 0.00 0.00 0.00 0.00 0.00 0.00 0.00 0.00 0.00 0.00 0.00 0.00 0.00 0.00 0.00 0.00 0.00 0.00 0.00 0.00 0.00 0.00 0.00 0.00 0.00 0.00 0.00 0.00 0.00 0.00 0.00 0.00 0.00 0.00 0.00 0.00 0.00 0.00
0.00 0.00 0.00 0.00 0.00 0.00 0.00 0.00 0.00 0.00 0.00 0.00 0.00 0.00 0.00 0.00 0.00 0.00 0.00 0.00 0.00 0.00 0.00 0.00 0.00 0.00 0.00 0.00 0.00 0.00 0.00 0.00 0.00 0.00 0.00 0.00 0.00 0.00 0.00 0.00 0.00 0.00 0.00 0.00 0.00 0.00 0.00 0.00 0.00
0.00 0.00 0.00 0.00 0.00 0.00 0.00 0.00 0.00 0.00 0.00 0.00 0.00 0.00 0.00 0.00 0.00 0.00 0.00 0.00 0.00 0.00 0.00 0.00 0.00 0.00 0.00 0.00 0.00 0.00 0.00 0.00 0.00 0.00 0.00 0.00 0.00 0.00 0.00 0.00 0.00 0.00 0.00 0.00 0.00 0.00 0.00 0.00 0.00
0.00 0.00 0.00 0.00 0.00 0.00 0.00 0.00 0.00 0.00 0.00 0.00 0.00 0.00 0.00 0.00 0.00 0.00 0.00 0.00 0.00 0.00 0.00 0.00 0.00 0.00 0.00 0.00 0.00 0.00 0.00 0.00 0.00 0.00 0.00 0.00 0.00 0.00 0.00 0.00 0.00 0.00 0.00 0.00 0.00 0.00 0.00 0.00 0.00
0.00 0.00 0.00 0.00 0.00 0.00 0.00 0.00 0.00 0.00 0.00 0.00 0.00 0.00 0.00 0.00 0.00 0.00 0.00 0.00 0.00 0.00 0.00 0.00 0.00 0.00 0.00 0.00 0.00 0.00 0.00 0.00 0.00 0.00 0.00 0.00 0.00 0.00 0.00 0.00 0.00 0.00 0.00 0.00 0.00 0.00 0.00 0.00 0.00
0.00 0.00 0.00 0.00 0.00 0.00 0.00 0.00 0.00 0.00 0.00 0.00 0.00 0.00 0.00 0.00 0.00 0.00 0.00 0.00 0.00 0.00 0.00 0.00 0.00 0.00 0.00 0.00 0.00 0.00 0.00 0.00 0.00 0.00 0.00 0.00 0.00 0.00 0.00 0.00 0.00 0.00 0.00 0.00 0.00 0.00 0.00 0.00 0.00
0.00 0.00 0.00 0.00 0.00 0.00 0.00 0.00 0.00 0.00 0.00 0.00 0.00 0.00 0.00 0.00 0.00 0.00 0.00 0.00 0.00 0.00 0.00 0.00 0.00 0.00 0.00 0.00 0.00 0.00 0.00 0.00 0.00 0.00 0.00 0.00 0.00 0.00 0.00 0.00 0.00 0.00 0.00 0.00 0.00 0.00 0.00 0.00 0.00
0.00 0.00 0.00 0.00 0.00 0.00 0.00 0.00 0.00 0.00 0.00 0.00 0.00 0.00 0.00 0.00 0.00 0.00 0.00 0.00 0.00 0.00 0.00 0.00 0.00 0.00 0.00 0.00 0.00 0.00 0.00 0.00 0.00 0.00 0.00 0.00 0.00 0.00 0.00 0.00 0.00 0.00 0.00 0.00 0.00 0.00 0.00 0.00 0.00
0.00 0.00 0.00 0.00 0.00 0.00 0.00 0.00 0.00 0.00 0.00 0.00 0.00 0.00 0.00 0.00 0.00 0.00 0.00 0.00 0.00 0.00 0.00 0.00 0.00 0.00 0.00 0.00 0.00 0.00 0.00 0.00 0.00 0.00 0.00 0.00 0.00 0.00 0.00 0.00 0.00 0.00 0.00 0.00 0.00 0.00 0.00 0.00 0.00
MSLP
1009.70 1008.25 1008.33 1007.08 1006.45 1004.13 1001.55 1000.20 1000.22 1000.64 1001.44 1002.38 1002.70 1003.01 1003.53 1004.26 1004.13 1005.82 1006.62 1006.37 1006.88 1007.84 1008.90 1009.53 1010.10 1010.37 1010.45 1010.60 1010.79 1011.01 1011.38 1011.62 1011.90 1012.33 1012.72 1013.03 1013.27 1013.43 1013.56 1013.63 1013.75 1013.94 1014.14 1014.36 1014.64 1014.87 1015.02 1015.20 1015.35
1009.40 1008.22 1007.00 1006.21 1004.98 1002.45 1001.01 1000.60 1000.66 1001.56 1002.46 1002.71 1003.22 1003.22 1003.85 1005.33 1005.71 1006.48 1006.83 1006.96 1007.09 1007.81 1008.78 1009.48 1010.27 1010.56 1010.77 1010.92 1011.15 1011.34 1011.52 1011.75 1012.07 1012.36 1012.80 1013.18 1013.39 1013.61 1013.73 1013.91 1013.96 1013.98 1014.14 1014.40 1014.67 1014.93 1015.13 1015.31 1015.49
1009.34 1008.06 1007.03 1005.08 1003.69 1001.90 1001.03 1001.26 1001.83 1002.55 1003.05 1002.81 1002.98 1003.91 1005.12 1006.18 1006.53 1006.94 1007.27 1007.20 1007.44 1007.94 1008.59 1009.71 1010.46 1010.80 1011.04 1011.23 1011.47 1011.73 1011.89 1012.05 1012.26 1012.46 1012.82 1013.13 1013.38 1013.58 1013.81 1014.04 1014.23 1014.32 1014.35 1014.45 1014.69 1014.92 1015.18 1015.38 1015.54
1007.63 1006.71 1006.44 1004.68 1002.72 1001.68 1001.45 1001.88 1002.71 1002.84 1003.30 1003.36 1003.62 1005.11 1006.46 1006.71 1007.04 1007.24 1007.45 1007.71 1008.05 1008.62 1009.37 1010.35 1010.75 1011.21 1011.39 1011.50 1011.73 1011.88 1012.19 1012.38 1012.49 1012.68 1012.88 1013.11 1013.33 1013.53 1013.82 1013.99 1014.17 1014.33 1014.49 1014.71 1014.81 1014.98 1015.15 1015.40 1015.57
1007.02 1006.44 1005.02 1003.69 1002.21 1001.85 1002.08 1002.82 1003.55 1003.54 1003.85 1003.94 1004.23 1005.58 1006.80 1007.42 1007.67 1007.89 1008.16 1008.49 1008.78 1009.07 1009.64 1010.37 1011.00 1011.36 1011.67 1011.78 1011.98 1012.04 1012.28 1012.46 1012.72 1012.86 1013.08 1013.23 1013.42 1013.62 1013.81 1014.03 1014.18 1014.38 1014.61 1014.76 1014.79 1015.01 1015.22 1015.38 1015.58
1006.46 1005.47 1004.42 1002.51 1001.98 1002.00 1002.63 1003.38 1003.84 1004.39 1004.68 1004.67 1004.98 1005.54 1007.15 1008.06 1008.19 1008.25 1008.54 1008.91 1009.42 1009.73 1009.77 1010.38 1011.06 1011.37 1011.69 1011.81 1011.96 1012.08 1012.14 1012.27 1012.41 1012.60 1012.83 1013.04 1013.37 1013.66 1013.89 1014.15 1014.28 1014.31 1014.45 1014.57 1014.71 1014.88 1015.08 1015.25 1015.43
1006.29 1005.02 1003.92 1002.61 1001.97 1002.37 1003.17 1004.03 1004.50 1004.78 1004.94 1005.52 1005.94 1006.07 1007.44 1008.19 1008.43 1008.38 1008.63 1009.04 1009.69 1010.05 1010.24 1010.27 1010.81 1011.19 1011.52 1011.76 1011.83 1012.05 1012.30 1012.42 1012.49 1012.62 1012.73 1012.87 1013.01 1013.27 1013.53 1013.78 1014.07 1014.27 1014.40 1014.43 1014.52 1014.59 1014.78 1015.05 1015.26
1006.02 1005.41 1004.37 1002.92 1002.40 1002.74 1003.73 1004.43 1005.18 1005.49 1006.00 1006.30 1006.57 1006.42 1007.94 1008.71 1008.46 1008.36 1008.59 1008.92 1009.76 1010.29 1010.61 1010.84 1010.83 1010.79 1010.92 1011.36 1011.52 1011.71 1012.07 1012.38 1012.54 1012.64 1012.83 1012.99 1013.04 1013.21 1013.46 1013.59 1013.76 1013.99 1014.11 1014.31 1014.28 1014.54 1014.52 1014.65 1014.85
1006.29 1005.90 1004.08 1002.95 1002.47 1003.79 1004.77 1004.73 1005.36 1006.00 1006.11 1006.42 1006.75 1007.46 1008.65 1008.92 1008.82 1008.92 1008.96 1009.27 1009.98 1010.62 1011.06 1011.71 1011.89 1011.64 1011.23 1010.69 1010.80 1011.58 1011.90 1012.12 1012.33 1012.49 1012.58 1012.73 1012.83 1012.74 1012.97 1013.22 1013.35 1013.50 1013.75 1013.85 1014.01 1014.13 1014.32 1014.45 1014.47
1006.11 1005.28 1004.29 1004.47 1004.06 1004.19 1005.25 1005.58 1005.63 1006.24 1006.17 1006.65 1007.07 1007.95 1008.79 1008.97 1009.36 1009.88 1009.94 1010.35 1011.02 1011.50 1011.83 1012.40 1012.82 1012.84 1012.34 1011.20 1011.14 1010.97 1010.84 1011.24 1011.37 1011.51 1011.66 1012.16 1012.23 1012.15 1012.13 1012.08 1012.43 1012.75 1013.12 1013.42 1013.68 1013.75 1013.86 1013.99 1013.92
1005.71 1005.24 1005.14 1005.26 1005.95 1005.65 1005.59 1006.03 1006.38 1006.74 1006.60 1006.95 1007.58 1008.33 1009.16 1009.52 1010.23 1011.01 1011.37 1011.95 1012.55 1012.68 1013.14 1013.67 1013.76 1013.79 1013.43 1012.92 1012.16 1011.79 1011.08 1010.29 1010.35 1010.40 1010.56 1010.90 1011.31 1011.66 1011.83 1012.00 1012.12 1012.61 1012.90 1013.08 1013.22 1013.38 1013.34 1013.18 1013.17
1005.81 1005.57 1005.35 1005.51 1006.31 1006.47 1006.46 1006.68 1006.73 1006.89 1006.99 1007.49 1008.36 1009.05 1009.68 1010.21 1011.36 1012.10 1012.80 1013.32 1013.82 1014.15 1014.78 1015.02 1014.85 1014.74 1014.35 1013.82 1013.70 1013.41 1012.79 1011.94 1010.94 1010.46 1010.95 1011.02 1011.38 1011.65 1011.99 1011.99 1011.99 1012.31 1012.39 1012.56 1012.57 1012.50 1012.40 1012.34 1012.19
1005.92 1005.96 1005.69 1006.33 1006.59 1006.99 1007.27 1007.35 1007.49 1007.39 1007.36 1008.26 1008.92 1009.57 1010.20 1011.40 1012.47 1013.24 1013.96 1014.50 1014.96 1015.30 1015.74 1016.02 1015.78 1015.52 1014.78 1014.43 1014.40 1014.31 1013.88 1013.54 1013.32 1012.73 1012.67 1012.45 1012.35 1012.71 1012.22 1012.26 1012.09 1011.98 1012.03 1012.02 1012.18 1011.96 1011.95 1011.91 1011.75
1006.05 1006.28 1006.04 1006.33 1006.61 1006.90 1007.34 1007.37 1007.49 1007.22 1007.62 1008.39 1009.06 1009.66 1011.23 1012.54 1013.63 1014.46 1015.14 1015.51 1015.82 1016.16 1016.36 1016.43 1016.24 1016.04 1015.56 1015.18 1014.85 1014.78 1014.57 1014.30 1013.92 1013.81 1013.62 1013.63 1013.61 1013.73 1013.47 1013.13 1012.79 1012.52 1012.62 1012.49 1012.29 1011.93 1011.75 1011.42 1011.21
1006.80 1006.86 1006.57 1006.33 1006.48 1006.82 1007.30 1007.47 1006.78 1007.08 1007.85 1008.40 1008.83 1009.67 1011.67 1013.08 1014.07 1015.18 1015.82 1016.00 1016.22 1016.68 1016.94 1017.00 1016.74 1016.50 1016.02 1015.83 1015.23 1015.16 1014.88 1014.70 1014.41 1014.43 1014.32 1014.30 1014.32 1014.27 1014.01 1013.75 1013.52 1013.01 1012.84 1012.61 1012.48 1012.41 1011.98 1011.83 1011.35
1007.38 1006.85 1005.94 1004.88 1005.54 1006.73 1007.56 1006.30 1005.01 1006.74 1007.83 1008.16 1008.56 1009.56 1011.71 1013.57 1014.61 1015.65 1016.22 1016.39 1016.49 1016.92 1017.34 1017.48 1017.42 1017.07 1016.36 1015.98 1015.72 1015.33 1015.34 1015.01 1014.94 1014.98 1014.86 1015.02 1014.90 1014.70 1014.33 1013.95 1013.54 1013.11 1012.86 1012.58 1012.58 1012.38 1012.13 1011.98 1011.87
1006.89 1005.82 1005.04 1004.62 1005.07 1005.95 1006.90 1006.09 1006.07 1006.74 1007.54 1008.08 1008.75 1009.84 1011.67 1013.56 1015.00 1016.08 1016.48 1016.68 1016.77 1017.33 1017.80 1017.80 1017.67 1017.45 1016.91 1016.28 1015.73 1015.75 1015.78 1015.43 1015.39 1015.26 1015.24 1015.39 1015.28 1015.03 1014.70 1014.20 1013.94 1013.59 1013.12 1012.83 1012.80 1012.80 1012.53 1012.34 1011.78
1005.31 1005.22 1004.67 1003.98 1004.63 1005.54 1005.98 1006.29 1006.03 1006.10 1006.55 1007.43 1008.78 1010.15 1011.93 1013.60 1015.23 1016.44 1016.88 1017.21 1017.13 1017.39 1017.51 1017.81 1018.03 1017.81 1017.31 1016.95 1016.33 1015.88 1015.98 1016.15 1016.13 1015.96 1015.95 1015.72 1015.61 1015.72 1015.50 1015.10 1015.06 1014.78 1014.39 1014.06 1013.83 1013.60 1013.22 1012.71 1012.12
1004.86 1004.59 1004.31 1003.80 1004.15 1005.30 1005.72 1006.02 1006.20 1006.27 1006.14 1007.21 1009.11 1010.40 1012.19 1013.94 1015.56 1016.33 1016.93 1017.34 1017.40 1017.70 1017.79 1017.89 1018.04 1018.26 1017.96 1017.39 1017.18 1016.83 1016.64 1016.38 1016.64 1016.68 1016.70 1016.43 1016.30 1016.42 1016.31 1016.22 1015.98 1015.73 1015.50 1015.33 1015.07 1014.76 1014.18 1013.57 1013.04
1005.35 1005.01 1004.85 1004.73 1004.58 1004.78 1005.37 1005.72 1005.96 1005.90 1005.98 1007.11 1008.80 1010.75 1012.51 1014.08 1015.14 1016.28 1017.05 1017.60 1018.01 1018.22 1018.26 1018.35 1018.54 1018.49 1018.54 1018.30 1017.76 1017.30 1016.95 1016.59 1016.60 1016.76 1017.10 1017.24 1017.09 1017.00 1017.04 1017.07 1016.86 1016.71 1016.27 1015.94 1015.86 1015.53 1014.95 1014.51 1014.28
1005.29 1005.10 1005.08 1005.05 1004.99 1005.25 1005.91 1005.74 1005.63 1005.48 1006.00 1007.74 1009.71 1011.03 1012.89 1014.29 1015.22 1016.20 1017.11 1018.13 1018.61 1018.81 1018.93 1018.73 1018.90 1018.90 1019.22 1019.13 1018.53 1018.09 1017.32 1017.01 1017.12 1017.11 1017.37 1017.37 1017.55 1017.69 1017.67 1017.70 1017.30 1017.20 1016.97 1016.56 1016.47 1016.19 1015.94 1015.38 1015.00
1005.36 1005.41 1005.40 1005.57 1006.08 1005.75 1005.87 1004.88 1004.41 1004.89 1006.12 1008.11 1009.91 1011.41 1013.05 1014.59 1015.87 1016.60 1017.71 1018.40 1018.56 1018.87 1019.18 1019.13 1018.93 1019.31 1019.70 1019.88 1019.66 1019.23 1018.89 1018.72 1018.62 1018.33 1018.39 1018.01 1017.96 1018.13 1018.30 1018.19 1017.87 1017.59 1017.39 1017.11 1017.02 1016.74 1016.42 1016.14 1015.46
1005.44 1005.67 1006.17 1006.24 1006.78 1006.73 1006.32 1005.73 1004.58 1004.45 1005.74 1007.65 1009.47 1011.22 1012.91 1014.45 1015.82 1017.13 1018.16 1018.39 1018.75 1019.03 1019.21 1019.27 1019.07 1019.57 1020.13 1020.37 1020.33 1020.13 1020.01 1020.02 1019.74 1019.65 1019.36 1019.13 1019.11 1019.04 1019.09 1018.98 1018.46 1018.04 1017.81 1017.75 1017.42 1017.04 1016.72 1016.39 1016.06
1005.96 1006.84 1007.34 1007.58 1007.66 1006.51 1006.57 1006.16 1003.87 1003.32 1003.50 1006.45 1008.56 1010.74 1013.04 1015.06 1016.45 1017.60 1018.29 1018.48 1018.84 1019.23 1019.41 1019.56 1019.48 1019.91 1020.61 1020.90 1020.94 1020.95 1020.82 1020.50 1020.29 1020.27 1020.13 1020.12 1019.87 1019.95 1019.90 1019.79 1019.24 1018.69 1018.37 1018.13 1017.75 1017.28 1017.02 1016.61 1016.20
1006.24 1007.48 1007.69 1007.81 1007.31 1005.76 1005.54 1004.78 1003.69 1003.65 1003.98 1005.34 1007.78 1010.55 1012.92 1014.96 1016.43 1017.33 1017.83 1018.35 1018.90 1019.27 1019.88 1019.92 1020.03 1020.47 1020.97 1021.25 1021.43 1021.53 1021.42 1021.34 1021.08 1021.15 1020.99 1020.85 1020.47 1020.48 1020.67 1020.21 1019.76 1019.23 1018.74 1018.34 1017.84 1017.64 1017.20 1016.78 1016.65
1006.15 1006.80 1006.26 1006.51 1006.40 1005.58 1004.68 1003.81 1003.86 1004.29 1005.25 1006.39 1007.90 1010.29 1012.78 1014.75 1016.24 1017.11 1017.82 1018.33 1018.82 1019.50 1020.37 1020.58 1020.70 1021.07 1021.61 1021.82 1021.86 1021.97 1021.86 1021.83 1021.86 1021.74 1021.62 1021.38 1021.17 1020.94 1021.01 1020.62 1020.05 1019.51 1019.06 1018.61 1018.24 1017.95 1017.75 1017.39 1017.08
1005.50 1005.91 1006.60 1006.64 1006.80 1006.71 1005.88 1004.84 1005.05 1005.70 1006.53 1007.61 1008.78 1010.54 1012.86 1014.76 1016.03 1017.01 1017.87 1018.43 1018.92 1019.73 1020.75 1021.08 1021.38 1021.53 1021.90 1022.03 1022.21 1022.36 1022.27 1022.17 1022.22 1022.16 1022.04 1021.83 1021.65 1021.40 1021.29 1020.93 1020.42 1019.65 1019.10 1018.84 1018.59 1018.45 1018.14 1017.77 1017.19
1004.83 1005.79 1006.63 1007.13 1007.28 1007.06 1005.81 1005.31 1004.83 1005.69 1007.00 1008.16 1009.43 1010.93 1012.79 1014.59 1015.72 1016.69 1017.27 1018.17 1018.98 1020.02 1020.78 1021.31 1021.77 1022.07 1022.25 1022.32 1022.42 1022.44 1022.34 1022.48 1022.58 1022.55 1022.41 1022.20 1022.14 1021.90 1021.50 1021.09 1020.70 1020.08 1019.56 1018.85 1018.82 1018.73 1018.26 1018.24 1018.22
1005.21 1005.35 1005.92 1007.11 1007.38 1007.03 1006.52 1005.69 1005.18 1005.85 1007.00 1007.97 1009.19 1010.66 1012.47 1014.16 1015.42 1016.19 1016.90 1017.95 1018.86 1019.85 1020.64 1021.34 1021.81 1022.10 1022.24 1022.50 1022.69 1022.53 1022.51 1022.52 1022.83 1022.89 1022.70 1022.55 1022.38 1022.07 1021.69 1021.34 1021.07 1020.61 1020.02 1019.44 1019.34 1019.34 1019.54 1019.04 1018.80
1004.48 1005.17 1005.96 1006.97 1007.43 1007.52 1007.11 1005.58 1005.62 1006.18 1006.96 1007.68 1008.56 1009.76 1011.94 1013.98 1015.09 1015.86 1016.53 1017.59 1018.72 1019.70 1020.54 1021.41 1021.90 1022.12 1022.14 1022.26 1022.45 1022.51 1022.53 1022.35 1022.69 1022.88 1022.76 1022.47 1022.24 1022.06 1021.67 1021.40 1021.39 1021.24 1020.63 1020.37 1020.26 1020.05 1019.48 1019.43 1019.19
Thickness
5789 5799 5798 5798 5764 5780 5786 5804 5817 5802 5797 5810 5811 5801 5785 5789 5780 5746 5799 5806 5806 5799 5791 5787 5783 5780 5779 5777 5775 5772 5768 5765 5762 5756 5752 5749 5746 5745 5743 5742 5740 5738 5736 5733 5731 5728 5726 5724 5722
5788 5795 5798 5785 5761 5767 5792 5809 5796 5794 5798 5807 5802 5801 5779 5767 5789 5783 5787 5800 5803 5798 5790 5785 5779 5776 5773 5771 5768 5765 5763 5761 5757 5754 5749 5744 5742 5740 5739 5736 5736 5736 5733 5730 5728 5725 5723 5722 5720
5785 5793 5773 5773 5771 5770 5781 5792 5785 5788 5798 5798 5791 5792 5776 5765 5780 5782 5791 5795 5797 5793 5789 5781 5774 5770 5767 5765 5761 5758 5757 5755 5753 5751 5747 5743 5740 5738 5735 5733 5730 5729 5729 5728 5725 5722 5720 5718 5717
5787 5787 5778 5759 5766 5790 5790 5782 5784 5783 5790 5795 5790 5756 5770 5781 5776 5784 5788 5789 5786 5785 5778 5772 5768 5763 5760 5758 5755 5754 5751 5749 5747 5746 5743 5741 5739 5737 5734 5732 5729 5727 5725 5722 5721 5719 5718 5715 5714
5786 5774 5757 5761 5777 5780 5790 5783 5780 5772 5772 5776 5784 5741 5752 5767 5777 5777 5777 5779 5774 5775 5771 5766 5761 5757 5753 5751 5749 5748 5745 5744 5742 5740 5738 5737 5735 5733 5731 5729 5728 5725 5722 5719 5718 5716 5715 5714 5712
5762 5774 5750 5758 5778 5779 5781 5782 5775 5765 5766 5768 5766 5756 5745 5764 5765 5768 5772 5769 5767 5765 5765 5759 5754 5750 5747 5746 5745 5743 5743 5741 5740 5738 5736 5735 5732 5729 5727 5725 5723 5723 5721 5719 5717 5715 5713 5712 5710
5753 5757 5753 5768 5777 5766 5767 5775 5762 5759 5758 5754 5764 5747 5737 5756 5760 5765 5765 5762 5760 5756 5755 5754 5749 5746 5744 5741 5741 5739 5736 5735 5734 5732 5731 5731 5730 5728 5725 5723 5720 5719 5718 5717 5715 5714 5713 5711 5709
5761 5756 5747 5763 5766 5755 5766 5764 5763 5754 5743 5762 5761 5740 5719 5747 5760 5760 5762 5754 5754 5748 5748 5742 5744 5745 5744 5740 5739 5737 5734 5731 5729 5728 5725 5723 5723 5722 5720 5720 5718 5716 5714 5713 5713 5712 5711 5710 5708
5764 5733 5741 5762 5764 5745 5759 5752 5761 5761 5749 5752 5753 5744 5740 5746 5752 5748 5747 5743 5744 5740 5735 5734 5733 5734 5736 5739 5739 5733 5729 5728 5726 5724 5723 5721 5719 5720 5717 5716 5715 5714 5712 5711 5710 5709 5708 5708 5708
5741 5735 5741 5755 5757 5749 5749 5745 5746 5741 5743 5739 5742 5744 5742 5740 5737 5732 5731 5726 5727 5727 5723 5725 5721 5717 5721 5729 5729 5731 5730 5729 5728 5727 5725 5720 5718 5719 5719 5720 5718 5716 5712 5708 5707 5706 5706 5707 5708
5741 5728 5741 5745 5739 5745 5743 5740 5742 5729 5724 5732 5728 5727 5729 5728 5724 5719 5717 5713 5711 5713 5712 5710 5708 5706 5708 5711 5716 5720 5723 5731 5731 5730 5726 5723 5721 5719 5717 5715 5716 5711 5707 5705 5704 5703 5704 5706 5706
5724 5739 5740 5740 5738 5732 5728 5734 5728 5729 5727 5732 5728 5725 5716 5714 5710 5705 5701 5696 5695 5694 5693 5691 5693 5694 5696 5700 5700 5702 5707 5713 5720 5724 5715 5713 5713 5712 5709 5710 5710 5708 5705 5705 5703 5703 5705 5707 5707
5722 5726 5735 5730 5729 5723 5723 5717 5715 5717 5725 5725 5719 5714 5703 5700 5695 5691 5686 5683 5680 5679 5678 5676 5679 5681 5686 5689 5689 5689 5692 5694 5695 5700 5698 5699 5699 5696 5700 5699 5702 5700 5699 5702 5700 5700 5702 5702 5703
5723 5721 5723 5724 5720 5720 5710 5711 5712 5716 5718 5714 5709 5703 5687 5686 5677 5668 5665 5663 5664 5664 5663 5665 5667 5669 5673 5676 5677 5678 5679 5680 5683 5682 5683 5682 5681 5679 5680 5683 5686 5688 5687 5688 5690 5694 5693 5694 5697
5712 5699 5707 5712 5712 5706 5709 5693 5700 5710 5712 5705 5703 5696 5676 5676 5666 5654 5651 5650 5652 5651 5651 5651 5652 5654 5659 5660 5664 5666 5666 5669 5670 5669 5668 5666 5665 5665 5666 5667 5669 5673 5676 5678 5678 5678 5682 5685 5690
5688 5693 5685 5717 5708 5703 5693 5687 5717 5706 5700 5699 5701 5693 5669 5665 5656 5647 5643 5642 5642 5639 5635 5636 5637 5640 5645 5647 5649 5651 5652 5654 5655 5654 5653 5650 5649 5649 5651 5654 5656 5661 5663 5667 5668 5670 5671 5674 5677
5682 5677 5688 5698 5707 5693 5686 5690 5698 5697 5688 5688 5691 5683 5665 5655 5647 5638 5636 5634 5634 5628 5623 5624 5625 5625 5629 5634 5637 5636 5636 5638 5639 5639 5638 5636 5635 5636 5635 5638 5642 5646 5648 5651 5654 5655 5658 5659 5664
5679 5676 5688 5694 5692 5686 5677 5680 5697 5698 5688 5674 5679 5670 5657 5645 5635 5628 5625 5622 5623 5620 5619 5615 5612 5613 5617 5619 5622 5624 5623 5620 5619 5620 5619 5621 5621 5619 5618 5619 5620 5622 5624 5628 5630 5633 5637 5641 5646
5691 5681 5679 5698 5702 5675 5667 5675 5680 5689 5694 5670 5665 5658 5646 5634 5625 5621 5617 5614 5614 5610 5608 5607 5605 5601 5601 5604 5604 5605 5605 5606 5601 5599 5598 5598 5601 5599 5598 5597 5599 5601 5603 5603 5603 5608 5614 5618 5621
5672 5668 5668 5680 5691 5683 5667 5661 5672 5682 5682 5669 5662 5645 5635 5625 5621 5613 5607 5604 5600 5597 5596 5594 5591 5590 5588 5587 5589 5590 5589 5591 5586 5584 5580 5576 5577 5577 5575 5574 5576 5577 5581 5584 5586 5587 5591 5595 5596
5662 5660 5662 5662 5673 5672 5657 5652 5660 5673 5674 5660 5645 5639 5626 5616 5611 5605 5599 5589 5586 5583 5581 5581 5578 5576 5570 5568 5570 5570 5574 5573 5568 5566 5561 5558 5555 5554 5553 5552 5555 5556 5559 5562 5564 5567 5570 5572 5574
5643 5664 5659 5653 5645 5634 5661 5629 5664 5661 5654 5640 5632 5627 5617 5606 5598 5594 5584 5579 5578 5574 5569 5568 5568 5562 5554 5547 5544 5543 5543 5541 5540 5540 5536 5537 5536 5533 5531 5530 5532 5534 5536 5539 5540 5543 5547 5552 5558
5644 5654 5643 5644 5634 5631 5635 5627 5652 5665 5639 5632 5626 5621 5612 5601 5592 5580 5571 5571 5567 5563 5559 5556 5555 5546 5537 5530 5525 5523 5519 5516 5515 5513 5513 5513 5512 5511 5510 5507 5510 5514 5515 5516 5521 5526 5530 5534 5540
5648 5627 5627 5625 5618 5604 5623 5624 5646 5656 5659 5635 5629 5618 5601 5583 5573 5566 5561 5559 5555 5549 5545 5540 5538 5531 5520 5514 5510 5504 5501 5500 5499 5495 5494 5491 5492 5489 5488 5486 5491 5493 5495 5498 5504 5510 5514 5519 5524
5628 5607 5592 5589 5591 5606 5640 5632 5642 5654 5653 5643 5626 5610 5592 5575 5565 5560 5556 5551 5543 5538 5529 5526 5522 5514 5506 5500 5495 5489 5486 5483 5482 5478 5475 5473 5473 5471 5467 5468 5473 5475 5478 5483 5490 5493 5499 5505 5507
5614 5609 5605 5588 5597 5616 5644 5623 5631 5646 5640 5631 5619 5604 5584 5568 5558 5553 5546 5541 5535 5524 5513 5509 5505 5498 5489 5484 5480 5475 5473 5470 5467 5464 5461 5459 5457 5455 5451 5452 5455 5459 5465 5469 5474 5478 5481 5487 5493
5607 5595 5617 5600 5605 5588 5609 5630 5624 5622 5613 5607 5598 5587 5571 5558 5549 5540 5534 5529 5524 5513 5500 5494 5488 5484 5477 5472 5468 5463 5461 5458 5454 5451 5448 5446 5444 5442 5438 5437 5440 5446 5452 5454 5457 5460 5465 5473 5481
5608 5610 5580 5581 5567 5566 5601 5609 5609 5602 5595 5590 5581 5571 5560 5549 5540 5532 5529 5520 5511 5499 5489 5482 5475 5468 5463 5460 5456 5453 5450 5445 5440 5437 5434 5432 5429 5428 5427 5427 5429 5434 5438 5442 5443 5447 5455 5459 5463
5587 5585 5587 5580 5580 5570 5574 5590 5612 5597 5589 5581 5576 5568 5553 5540 5531 5525 5520 5511 5500 5490 5480 5471 5464 5458 5453 5448 5443 5441 5438 5434 5427 5423 5420 5418 5417 5416 5416 5416 5416 5421 5426 5429 5432 5434 5436 5445 5450
5594 5588 5583 5554 5563 5564 5566 5580 5602 5590 5586 5580 5574 5567 5551 5530 5523 5517 5512 5502 5491 5480 5470 5459 5452 5447 5444 5440 5435 5431 5428 5425 5418 5413 5410 5408 5408 5406 5407 5408 5406 5407 5412 5414 5417 5422 5430 5433 5438